[[{"header":{"parameterUnit":"m.s-1","parameterCategory":1,"la1":30.2991,"la2":30.254,"lo1":-89.0895,"lo2":-89.0444,"dy":0.0017,"dx":0.0017,"nx":28,"ny":28,"refTime":"2025-06-09T03:00:00:Z","depth":0,"parameterNumber":2,"parameterNumberName":"U-component_of_WINDS"},"data":[0,0,0,0,0,0,0,0,0,0,0,0,0,0,0,0,0,0,0,0,0,0,0,0,0,0,0,0,0,0,0,0,0,0,0,0,0,0,0,0,0,0,0,0,0,0,0,0,0,0,0,0,0,0,0,0,0,0,0.8314,0.8315,0,0.8409,0.841,0.8411,0.8448,0.8448,0.8448,0.8448,0.8542,0.8545,0.8547,0,0,0,0,0,0,0,0,0,0,0,0,0,0.8161,0.8164,0.8314,0.8315,0.8316,0.8409,0.841,0.8411,0.8449,0.8448,0.8448,0.8448,0.8541,0.8544,0.8548,0,0,0,0,0,0,0,0,0,0,0,0,0,0.8239,0.8165,0.8313,0.8346,0.835,0.8408,0.841,0.8412,0.8449,0.8448,0.8448,0.8448,0.854,0.8544,0.8548,0.8581,0,0,0.8561,0.8562,0,0,0,0,0,0,0,0,0.8235,0.8245,0.834,0.8344,0.8348,0.8417,0.8391,0.8468,0.8449,0.8411,0.8448,0.8447,0.85,0.8508,0.8526,0.8585,0.8589,0.8561,0.8563,0.8565,0.8566,0,0,0,0,0,0,0,0.8229,0.8241,0.8351,0.8341,0.8346,0.8355,0.8365,0.8406,0.8456,0.8414,0.8417,0.8428,0.8502,0.8522,0.8529,0.859,0.8561,0.8564,0.8567,0.8569,0.8682,0.8682,0,0,0,0,0,0,0.8219,0.8236,0.8348,0.8354,0.8289,0.8358,0.837,0.8395,0.8456,0.8465,0.8428,0.8429,0.8515,0.8524,0.8532,0.8575,0.8565,0.8569,0.8571,0.8681,0.8682,0.8682,0,0,0,0,0,0,0.8215,0.8229,0.8344,0.8296,0.8311,0.8361,0.8389,0.8397,0.8417,0.8467,0.8476,0.8439,0.8515,0.8526,0.8569,0.8579,0.8571,0.8575,0.868,0.8681,0.8682,0.866,0,0,0,0,0,0,0.8211,0.8227,0.824,0.8296,0.8314,0.838,0.8389,0.8399,0.8424,0.8427,0.8479,0.8488,0.8516,0.8562,0.8573,0.8584,0.8578,0.868,0.8681,0.8682,0.866,0.866,0.866,0,0,0,0,0,0.8205,0.823,0.8241,0.8254,0.8332,0.838,0.8391,0.8423,0.8425,0.8438,0.8471,0.8486,0.8576,0.8566,0.8578,0.8591,0.8679,0.868,0.8682,0.866,0.866,0.866,0,0,0,0,0,0,0.8172,0.8237,0.8251,0.8294,0.8332,0.8387,0.8405,0.8422,0.8459,0.846,0.8498,0.851,0.8549,0.8574,0.8562,0.8626,0.8629,0.8632,0.8608,0.8609,0.8609,0.8601,0.8581,0,0,0,0,0,0.817,0.8205,0.826,0.8293,0.8311,0.8355,0.8377,0.8399,0.8439,0.8455,0.849,0.8528,0.8565,0.8588,0.8625,0.8664,0.8676,0.8679,0.8679,0.8679,0.8681,0.8705,0.8706,0.8686,0.8686,0.8686,0,0,0.8165,0.8206,0.8225,0.8287,0.8319,0.8354,0.8368,0.8404,0.843,0.846,0.8503,0.853,0.8574,0.8616,0.8636,0.8638,0.869,0.868,0.8679,0.8682,0.8706,0.8708,0.8709,0.8687,0.8687,0.8687,0,0,0.8176,0.8209,0.8241,0.8273,0.8322,0.8351,0.8358,0.8412,0.8431,0.8475,0.8499,0.853,0.8592,0.8623,0.8647,0.867,0.8686,0.8681,0.868,0.8703,0.8704,0.8706,0.8715,0.8717,0.8684,0.8683,0.8683,0,0.8163,0.8218,0.8254,0.829,0.8316,0.8347,0.8379,0.8408,0.8465,0.8483,0.8485,0.8565,0.8597,0.8646,0.8652,0.867,0.868,0.8675,0.8702,0.8703,0.8705,0.8714,0.8717,0.8683,0.8683,0.8683,0.8683,0,0.8201,0.8239,0.8258,0.8315,0.8344,0.8377,0.8417,0.8442,0.8462,0.849,0.8535,0.8574,0.862,0.8633,0.8652,0.8686,0.8686,0.8694,0.8697,0.8706,0.8715,0.8718,0.8681,0.8682,0.8682,0.8682,0,0,0.8192,0.827,0.8276,0.8303,0.8359,0.8389,0.8423,0.8469,0.849,0.8528,0.8558,0.8611,0.862,0.8647,0.867,0.8689,0.8706,0.8696,0.8697,0.8696,0.8745,0.8738,0.8742,0.8717,0.8718,0.8718,0.8741,0,0.821,0.8275,0.8309,0.8359,0.8394,0.8425,0.8455,0.8492,0.852,0.8553,0.8584,0.8621,0.8629,0.8646,0.8667,0.8699,0.8716,0.8698,0.8744,0.8746,0.8732,0.8746,0.8739,0.8759,0.8745,0.8746,0.8746,0,0.8239,0.8279,0.8333,0.8387,0.8403,0.843,0.8475,0.8507,0.855,0.8569,0.86,0.8623,0.866,0.8661,0.8713,0.87,0.8721,0.874,0.8741,0.8746,0.8746,0.8752,0.8766,0.8769,0.8752,0.8751,0.8751,0,0.8227,0.8295,0.8336,0.8358,0.8421,0.844,0.8467,0.851,0.8536,0.8575,0.8592,0.8634,0.8658,0.869,0.8723,0.8721,0.8772,0.8775,0.8788,0.8787,0.8797,0.8796,0.8815,0.8811,0.8811,0.8811,0.8811,0,0.8243,0.8275,0.8332,0.8358,0.8394,0.8433,0.8468,0.8497,0.8535,0.8566,0.8595,0.8623,0.8666,0.8699,0.8726,0.8765,0.8775,0.8791,0.8798,0.8789,0.8787,0.8803,0.8802,0.8812,0.8811,0.8811,0.8811,0,0.8236,0.8276,0.8323,0.838,0.8395,0.842,0.8468,0.8493,0.8523,0.8562,0.8573,0.862,0.8661,0.8698,0.8752,0.877,0.881,0.8818,0.8795,0.8799,0.881,0.8808,0.884,0.8846,0.8837,0.8837,0.8837,0,0.8244,0.827,0.833,0.8354,0.8381,0.8418,0.8445,0.8484,0.8511,0.8563,0.8582,0.8626,0.8663,0.8727,0.8764,0.8806,0.8816,0.8824,0.8822,0.8812,0.8816,0.8814,0.8817,0.8823,0.8823,0.8823,0.8823,0,0.8254,0.8273,0.8311,0.8357,0.8389,0.8426,0.8464,0.8482,0.8528,0.8556,0.86,0.8628,0.8684,0.8727,0.8773,0.88,0.8819,0.8824,0.8829,0.882,0.8806,0.8814,0.8795,0.8823,0.8823,0.8823,0.8823,0.8823,0.8255,0.8279,0.8326,0.8368,0.8402,0.8437,0.8464,0.8498,0.8535,0.8585,0.8605,0.8649,0.8692,0.8756,0.8783,0.8818,0.8821,0.8829,0.8831,0.8832,0.883,0.88,0.8826,0.8826,0.8826,0.8826,0.8826,0,0.8266,0.8298,0.8337,0.8391,0.8424,0.844,0.8484,0.851,0.8549,0.8588,0.8624,0.8674,0.8716,0.8757,0.8801,0.8821,0.883,0.8831,0.883,0.8836,0.8825,0.8816,0.8822,0.8822,0.8822,0.8822,0.8822,0.8822,0.8276,0.8319,0.8343,0.8403,0.8434,0.8479,0.8502,0.8535,0.8566,0.8621,0.8657,0.8684,0.8724,0.8771,0.881,0.8822,0.8836,0.8834,0.8848,0.8836,0.8836,0.8836,0.8828,0.8837,0.8837,0.8856,0.8856,0.8856]},{"header":{"parameterUnit":"m.s-1","parameterCategory":1,"la1":30.2991,"la2":30.254,"lo1":-89.0895,"lo2":-89.0444,"dy":0.0017,"dx":0.0017,"nx":28,"ny":28,"refTime":"2025-06-09T03:00:00:Z","depth":0,"parameterNumber":3,"parameterNumberName":"V-component_of_WINDS"},"data":[0,0,0,0,0,0,0,0,0,0,0,0,0,0,0,0,0,0,0,0,0,0,0,0,0,0,0,0,0,0,0,0,0,0,0,0,0,0,0,0,0,0,0,0,0,0,0,0,0,0,0,0,0,0,0,0,0,0,2.9342,2.9342,0,2.9346,2.9346,2.9346,2.9331,2.9331,2.933,2.933,2.9333,2.9333,2.9334,0,0,0,0,0,0,0,0,0,0,0,0,0,2.9322,2.9322,2.9342,2.9342,2.9342,2.9346,2.9346,2.9346,2.9331,2.9331,2.933,2.933,2.9333,2.9333,2.9334,0,0,0,0,0,0,0,0,0,0,0,0,0,2.9329,2.9323,2.9342,2.9336,2.9335,2.9346,2.9346,2.9346,2.9331,2.9331,2.933,2.933,2.9333,2.9333,2.9334,2.9351,0,0,2.9336,2.9336,0,0,0,0,0,0,0,0,2.9328,2.933,2.9336,2.9336,2.9335,2.9337,2.934,2.9348,2.9332,2.9333,2.933,2.9329,2.9335,2.9335,2.9337,2.9352,2.9352,2.9336,2.9337,2.9337,2.9337,0,0,0,0,0,0,0,2.9328,2.9329,2.9344,2.9337,2.9336,2.9332,2.9332,2.9341,2.9337,2.9333,2.9332,2.9332,2.9334,2.9337,2.9337,2.9352,2.9336,2.9337,2.9337,2.9338,2.938,2.938,0,0,0,0,0,0,2.9328,2.9329,2.9344,2.9344,2.933,2.9333,2.9333,2.9337,2.9337,2.9337,2.9333,2.9332,2.9336,2.9337,2.9337,2.9357,2.9337,2.9338,2.9338,2.9379,2.938,2.9381,0,0,0,0,0,0,2.9328,2.933,2.9343,2.9336,2.9338,2.9334,2.9339,2.9338,2.934,2.9337,2.9337,2.9336,2.9335,2.9336,2.9348,2.9357,2.9338,2.9339,2.9378,2.9379,2.938,2.9397,0,0,0,0,0,0,2.9328,2.933,2.9337,2.9336,2.9338,2.9354,2.9339,2.9338,2.9342,2.934,2.934,2.9339,2.9335,2.9347,2.9349,2.9358,2.9339,2.9377,2.9379,2.938,2.9396,2.9399,2.9401,0,0,0,0,0,2.9327,2.9341,2.9337,2.9339,2.9346,2.9355,2.9356,2.935,2.9342,2.9349,2.9347,2.9339,2.9356,2.9348,2.935,2.936,2.9377,2.9378,2.938,2.9395,2.9398,2.9401,0,0,0,0,0,0,2.9342,2.9341,2.9336,2.9351,2.9353,2.9352,2.936,2.9354,2.9358,2.9357,2.935,2.935,2.9363,2.9362,2.9354,2.9376,2.9365,2.9367,2.9376,2.9379,2.9382,2.9381,2.934,0,0,0,0,0,2.9347,2.9355,2.9353,2.9366,2.9367,2.9364,2.9367,2.9363,2.9365,2.9365,2.9365,2.9366,2.9372,2.9376,2.9381,2.9396,2.9396,2.9404,2.9406,2.9409,2.941,2.9418,2.9421,2.9386,2.9386,2.9386,0,0,2.9358,2.9358,2.9363,2.9369,2.937,2.9377,2.9365,2.9373,2.9378,2.9367,2.9377,2.9377,2.9378,2.9392,2.9398,2.9392,2.942,2.9411,2.9412,2.9413,2.942,2.9423,2.9426,2.9387,2.9387,2.9386,0,0,2.9381,2.9382,2.9393,2.9394,2.9396,2.9394,2.9396,2.9396,2.9396,2.9406,2.9398,2.9404,2.9414,2.9415,2.9417,2.9441,2.9434,2.9443,2.9456,2.9464,2.9467,2.9469,2.9477,2.948,2.9444,2.9444,2.9444,0,2.9393,2.9404,2.9399,2.9408,2.941,2.9401,2.9412,2.9413,2.9417,2.9419,2.9412,2.9425,2.9425,2.9438,2.9444,2.9446,2.9449,2.9442,2.9467,2.9469,2.9471,2.9479,2.9482,2.9445,2.9445,2.9445,2.9445,0,2.9419,2.9427,2.9435,2.9439,2.9443,2.9453,2.9449,2.9453,2.9449,2.9447,2.9458,2.9458,2.9463,2.9466,2.9462,2.9479,2.9475,2.9468,2.9456,2.9476,2.9482,2.9485,2.9447,2.9446,2.9446,2.9446,0,0,2.9451,2.9452,2.9455,2.9457,2.9458,2.9464,2.9473,2.9478,2.9482,2.9484,2.9492,2.95,2.9494,2.9496,2.9492,2.9499,2.9517,2.9491,2.9491,2.9495,2.9535,2.954,2.9543,2.9513,2.9513,2.9513,2.9535,0,2.9473,2.9489,2.9484,2.95,2.9507,2.9498,2.9506,2.9508,2.9506,2.9512,2.951,2.9516,2.9507,2.9508,2.9515,2.9513,2.9525,2.9512,2.9519,2.9519,2.9518,2.9547,2.9552,2.9572,2.9537,2.9538,2.9538,0,2.95,2.9504,2.952,2.9521,2.9523,2.9531,2.9535,2.954,2.9542,2.954,2.9543,2.9538,2.9546,2.9535,2.9547,2.9539,2.9541,2.9541,2.9542,2.9541,2.9529,2.9547,2.9578,2.9581,2.9542,2.9542,2.9542,0,2.9521,2.953,2.9541,2.9543,2.9544,2.9549,2.9549,2.9551,2.9554,2.9557,2.9559,2.9564,2.9566,2.957,2.9565,2.9558,2.9578,2.9567,2.9576,2.9576,2.958,2.958,2.9612,2.9583,2.9583,2.9583,2.9583,0,2.9545,2.9555,2.955,2.9557,2.9568,2.9563,2.9574,2.9574,2.9575,2.9581,2.9574,2.958,2.9575,2.958,2.9577,2.9587,2.9588,2.9587,2.9586,2.9587,2.9587,2.9588,2.9586,2.9584,2.9584,2.9583,2.9583,0,2.9569,2.9567,2.9578,2.9578,2.9578,2.9587,2.9586,2.9592,2.9591,2.9599,2.96,2.9597,2.9603,2.96,2.9606,2.9604,2.9617,2.9614,2.9616,2.9615,2.9625,2.9624,2.9658,2.9662,2.9631,2.9632,2.9632,0,2.9585,2.9592,2.9593,2.9597,2.9598,2.9604,2.9608,2.9603,2.9607,2.9609,2.9615,2.9621,2.9625,2.9634,2.9633,2.9637,2.9634,2.9646,2.9635,2.9636,2.9634,2.9633,2.9634,2.9648,2.9648,2.9649,2.9649,0,2.9612,2.961,2.9615,2.962,2.9624,2.9628,2.9631,2.9634,2.9629,2.9634,2.964,2.9643,2.965,2.9655,2.9659,2.9659,2.9653,2.9653,2.9655,2.9656,2.9657,2.9656,2.9621,2.9652,2.9651,2.9651,2.9651,2.9651,2.9632,2.9638,2.964,2.9646,2.9648,2.965,2.9656,2.9655,2.966,2.9665,2.9662,2.9669,2.9671,2.9675,2.9676,2.9682,2.9677,2.9681,2.9682,2.9682,2.9684,2.9657,2.9683,2.9682,2.9682,2.9682,2.9682,0,2.9659,2.9659,2.9665,2.9669,2.9674,2.9668,2.9671,2.9675,2.9682,2.9683,2.9688,2.9695,2.97,2.9699,2.9703,2.9708,2.9705,2.9709,2.9709,2.9709,2.9688,2.9685,2.9711,2.9711,2.9711,2.9711,2.9711,2.9711,2.9673,2.9683,2.9682,2.9693,2.9693,2.97,2.9703,2.9705,2.9707,2.9715,2.9719,2.9718,2.9719,2.9724,2.9728,2.9728,2.973,2.9734,2.9733,2.9713,2.971,2.9707,2.9705,2.9735,2.9735,2.9753,2.9754,2.9754]}]]